{"data":{"norad_id":69567,"intl_designator":"2026-135X","name":"STARLINK-37934","alt_names":[],"object_type":"PAYLOAD","status":"ACTIVE","operator":null,"country":"US","launch_date":"2026-06-15","launch_site_code":"AFWTR","launch_vehicle":null,"mission":null,"orbit_class":"UNKNOWN","rcs_meters":null,"size_class":null,"mass_kg":null,"dimensions":null,"purposes":["comms"],"wikipedia_slug":null,"has_3d_model":false,"image_url":null,"decayed_at":null,"tle_current":{"epoch":"2026-09-20T04:06:33.546240Z","epoch_age_seconds":50094,"freshness":"FRESH","line1":"1 69567U 26135X   26263.17122160  .00008066  00000+0  25184-3 0  9991","line2":"2 69567  97.2846 290.9205 0001346 106.3725 253.7666 15.33451754 14969","mean_motion":15.33451754,"eccentricity":0.0001346,"inclination_deg":97.2846,"raan_deg":290.9205,"arg_perigee_deg":106.3725,"mean_anomaly_deg":253.7666,"bstar":0.00025184,"rev_number":1496,"period_min":93.905791052361,"perigee_km":464.60192275304,"apogee_km":466.44423604642,"semimajor_km":6843.6600793997,"source":"CELESTRAK","updated_at":"2026-09-20T09:00:44.246092Z"}}}